Soldotna, AK

11:21 PM AKDT on September 26, 2016 (GMT -0800)
Soldotna

Weather History for PASX - September, 2013

Change the Weather History Date:

Thursday, September 26, 2013

  Actual Average Record
Temperature  
Mean Temperature 44 °F -  
Max Temperature 48 °F 50 °F 60 °F (1952)
Min Temperature 41 °F 36 °F 16 °F (1992)
Degree Days  
Heating Degree Days 20    
Moisture  
Dew Point 43 °F    
Average Humidity 90    
Maximum Humidity 93    
Minimum Humidity 82    
Precipitation  
Precipitation 0.02 in - - ()
Sea Level Pressure  
Sea Level Pressure 29.51 in    
Wind  
Wind Speed 1 mph (WSW)    
Max Wind Speed 9 mph    
Max Gust Speed -    
Visibility 8 miles    
Events      
Averages and records for this station are not official NWS values.
T = Trace of Precipitation, MM = Missing Value Source: NWS Daily Summary

Daily Weather History Graph

Daily Weather History Graph

Search for Another Location

Airport or City:

Trip Planner

Search our weather history database for the weather conditions in past years. The results will help you decide how hot, cold, wet, or windy it might be!

Date:

Astronomy

Sep. 26, 2013 Rise Set
Actual Time 7:59 AM AKDT 7:50 PM AKDT
Civil Twilight 7:16 AM AKDT 8:32 PM AKDT
Nautical Twilight 6:26 AM AKDT 9:21 PM AKDT
Astronomical Twilight 5:32 AM AKDT 10:15 PM AKDT
Moon 11:37 PM AKDT (9/26) 4:21 PM AKDT (9/26)
Length of Visible Light 13h 15m
Length of Day
11h 51m
Waning Gibbous, 53% of the Moon is Illuminated
Sep 26
Waning Gibbous
Sep 26
Last Quarter
Oct 4
New
Oct 11
First Quarter
Oct 18
Full

Hourly Weather History & Observations

Time (AKDT) Temp. Windchill Dew Point Humidity Pressure Visibility Wind Dir Wind Speed Gust Speed Precip Events Conditions
12:16 AM 44.6 °F - 42.8 °F 93% 29.54 in 10.0 mi Calm Calm - N/A   Overcast
12:36 AM 42.8 °F - 41.0 °F 93% 29.54 in 1.8 mi Calm Calm - N/A   Overcast
12:56 AM 42.8 °F - 39.2 °F 87% 29.54 in 1.0 mi Calm Calm - N/A   Overcast
1:16 AM 42.8 °F - 39.2 °F 87% 29.55 in 0.2 mi Calm Calm - N/A   Overcast
1:36 AM 41.0 °F - 37.4 °F 87% 29.54 in 0.5 mi Calm Calm - N/A   Overcast
1:56 AM 41.0 °F - 39.2 °F 93% 29.55 in 0.8 mi Calm Calm - N/A   Overcast
2:16 AM 41.0 °F - 39.2 °F 93% 29.54 in 0.5 mi Calm Calm - N/A   Overcast
2:36 AM 42.8 °F - 39.2 °F 87% 29.55 in 2.5 mi Calm Calm - N/A   Overcast
2:56 AM 42.8 °F 41.1 °F 41.0 °F 93% 29.55 in 10.0 mi WNW 3.5 mph - N/A   Overcast
3:16 AM 42.8 °F - 41.0 °F 93% 29.55 in 10.0 mi Calm Calm - N/A   Overcast
3:36 AM 42.8 °F - 41.0 °F 93% 29.55 in 10.0 mi Calm Calm - N/A   Overcast
3:56 AM 42.8 °F - 41.0 °F 93% 29.56 in 10.0 mi Calm Calm - N/A   Overcast
4:16 AM 44.6 °F - 42.8 °F 93% 29.56 in 10.0 mi Calm Calm - N/A   Overcast
4:36 AM 44.6 °F - 42.8 °F 93% 29.56 in 10.0 mi Calm Calm - N/A   Overcast
4:56 AM 44.6 °F - 42.8 °F 93% 29.56 in 10.0 mi Calm Calm - N/A   Overcast
5:16 AM 44.6 °F - 42.8 °F 93% 29.57 in 10.0 mi Calm Calm - N/A   Overcast
5:36 AM 44.6 °F - 42.8 °F 93% 29.57 in 10.0 mi Calm Calm - N/A   Overcast
5:56 AM 44.6 °F - 42.8 °F 93% 29.57 in 10.0 mi Calm Calm - N/A   Overcast
6:16 AM 44.6 °F - 42.8 °F 93% 29.57 in 10.0 mi Calm Calm - N/A   Overcast
6:36 AM 44.6 °F 43.1 °F 42.8 °F 93% 29.58 in 10.0 mi NNE 3.5 mph - N/A   Overcast
6:56 AM 44.6 °F - 42.8 °F 93% 29.58 in 10.0 mi Calm Calm - N/A   Overcast
7:16 AM 44.6 °F 42.2 °F 41.0 °F 87% 29.58 in 10.0 mi ENE 4.6 mph - N/A   Overcast
7:36 AM 44.6 °F - 41.0 °F 87% 29.59 in 10.0 mi Calm Calm - N/A   Overcast
7:56 AM 42.8 °F - 41.0 °F 93% 29.59 in 10.0 mi Calm Calm - N/A   Overcast
8:16 AM 42.8 °F - 41.0 °F 93% 29.59 in 1.0 mi Calm Calm - N/A   Overcast
8:36 AM 42.8 °F - 41.0 °F 93% 29.60 in 5.0 mi Calm Calm - N/A   Overcast
8:56 AM 42.8 °F - 41.0 °F 93% 29.60 in 2.0 mi Calm Calm - N/A   Overcast
9:16 AM 42.8 °F - 41.0 °F 93% 29.60 in 1.0 mi Calm Calm - N/A   Overcast
9:36 AM 42.8 °F - 41.0 °F 93% 29.61 in 0.8 mi Calm Calm - N/A   Overcast
9:56 AM 42.8 °F 41.1 °F 41.0 °F 93% 29.61 in 0.8 mi North 3.5 mph - N/A   Overcast
10:16 AM 44.6 °F - 42.8 °F 93% 29.61 in 2.5 mi Calm Calm - N/A   Overcast
10:36 AM 44.6 °F - 42.8 °F 93% 29.61 in 2.5 mi Calm Calm - N/A   Overcast
10:56 AM 44.6 °F - 42.8 °F 93% 29.61 in 1.8 mi Calm Calm - N/A   Overcast
11:16 AM 44.6 °F - 42.8 °F 93% 29.61 in 9.0 mi Calm Calm - N/A   Overcast
11:36 AM 44.6 °F - 42.8 °F 93% 29.60 in 10.0 mi Calm Calm - N/A   Overcast
11:56 AM 44.6 °F - 42.8 °F 93% 29.60 in 9.0 mi Calm Calm - N/A   Overcast
12:16 PM 46.4 °F - 42.8 °F 87% 29.60 in 10.0 mi Calm Calm - N/A   Overcast
12:36 PM 46.4 °F 45.2 °F 42.8 °F 87% 29.60 in 10.0 mi South 3.5 mph - N/A   Overcast
12:56 PM 46.4 °F - 42.8 °F 87% 29.60 in 10.0 mi Calm Calm - N/A   Overcast
1:16 PM 46.4 °F 45.2 °F 42.8 °F 87% 29.59 in 10.0 mi SW 3.5 mph - N/A   Overcast
1:36 PM 46.4 °F - 42.8 °F 87% 29.59 in 10.0 mi Calm Calm - N/A   Overcast
1:56 PM 46.4 °F 45.2 °F 44.6 °F 93% 29.58 in 10.0 mi West 3.5 mph - N/A   Overcast
2:16 PM 48.2 °F - 42.8 °F 82% 29.57 in 8.0 mi WSW 4.6 mph - N/A   Overcast
2:36 PM 48.2 °F - 42.8 °F 82% 29.57 in 10.0 mi SW 4.6 mph - N/A   Overcast
2:56 PM 48.2 °F - 42.8 °F 82% 29.55 in 10.0 mi WSW 4.6 mph - N/A   Overcast
3:16 PM 48.2 °F - 42.8 °F 82% 29.54 in 10.0 mi West 3.5 mph - N/A   Overcast
3:36 PM 48.2 °F - 44.6 °F 87% 29.53 in 10.0 mi SSW 5.8 mph - N/A   Overcast
3:56 PM 48.2 °F - 42.8 °F 82% 29.52 in 10.0 mi WSW 9.2 mph - N/A   Overcast
4:16 PM 48.2 °F - 44.6 °F 87% 29.51 in 10.0 mi WSW 6.9 mph - N/A   Overcast
4:36 PM 48.2 °F - 44.6 °F 87% 29.51 in 10.0 mi WSW 5.8 mph - N/A   Overcast
4:56 PM 48.2 °F - 42.8 °F 82% 29.50 in 10.0 mi WSW 3.5 mph - N/A   Overcast
5:16 PM 48.2 °F - 42.8 °F 82% 29.49 in 10.0 mi Calm Calm - N/A   Overcast
5:36 PM 48.2 °F - 44.6 °F 87% 29.49 in 10.0 mi Calm Calm - N/A   Overcast
5:56 PM 48.2 °F - 44.6 °F 87% 29.48 in 10.0 mi East 3.5 mph - N/A   Overcast
6:16 PM 48.2 °F - 44.6 °F 87% 29.47 in 8.0 mi ESE 3.5 mph - N/A   Overcast
6:36 PM 48.2 °F - 44.6 °F 87% 29.45 in 6.0 mi Calm Calm - 0.02 in   Overcast
6:56 PM 48.2 °F - 44.6 °F 87% 29.44 in 10.0 mi Calm Calm - 0.02 in   Overcast
7:16 PM 48.2 °F - 44.6 °F 87% 29.42 in 10.0 mi Calm Calm - N/A   Overcast
7:36 PM 46.4 °F - 44.6 °F 93% 29.41 in 10.0 mi Calm Calm - N/A   Overcast
7:56 PM 46.4 °F - 44.6 °F 93% 29.40 in 10.0 mi Calm Calm - N/A   Overcast
8:16 PM 46.4 °F - 44.6 °F 93% 29.38 in 10.0 mi Calm Calm - N/A   Overcast
8:36 PM 46.4 °F 44.3 °F 44.6 °F 93% 29.37 in 10.0 mi East 4.6 mph - N/A   Overcast
8:56 PM 46.4 °F - 44.6 °F 93% 29.34 in 10.0 mi Calm Calm - N/A   Overcast
9:16 PM 46.4 °F - 44.6 °F 93% 29.33 in 10.0 mi Calm Calm - N/A   Overcast
9:36 PM 46.4 °F - 44.6 °F 93% 29.31 in 10.0 mi Calm Calm - N/A   Overcast
9:56 PM 46.4 °F 45.2 °F 44.6 °F 93% 29.29 in 10.0 mi NE 3.5 mph - N/A   Overcast
10:16 PM 44.6 °F - 42.8 °F 93% 29.27 in 9.0 mi Calm Calm - N/A   Overcast
10:36 PM 44.6 °F - 42.8 °F 93% 29.25 in 7.0 mi Calm Calm - N/A   Overcast
10:56 PM 44.6 °F - 42.8 °F 93% 29.23 in 1.8 mi Calm Calm - N/A   Overcast
11:16 PM 44.6 °F - 42.8 °F 93% 29.22 in 8.0 mi Calm Calm - N/A   Overcast
11:36 PM 44.6 °F - 41.0 °F 87% 29.20 in 10.0 mi Calm Calm - N/A   Overcast
11:56 PM 42.8 °F - 41.0 °F 93% 29.18 in 10.0 mi Calm Calm - N/A   Overcast